Temp
-12 -12 -11 -11 -10 -11 -10 -10 -9 -9 -9 -8 -8 -8 -8 -9 -9 -9 -8 -8 -7 -7 -7 -7 -7 -7 -6 -7 -7 -7 -6 -6 -6 -5 -4 -4 -4 -5 -5 -4 -4 -5 -5 -5 -5 -5 -5 -5 -5 -5 -6 -6 -6 -5 -5 -4 -5 -5 -5 -5 -5 -4 -4
-12 -12 -12 -12 -11 -11 -10 -10 -10 -10 -10 -9 -9 -9 -9 -9 -9 -9 -9 -8 -8 -8 -8 -8 -8 -7 -7 -7 -7 -7 -6 -6 -6 -5 -5 -4 -4 -5 -5 -4 -4 -5 -5 -5 -5 -5 -5 -5 -5 -5 -6 -6 -6 -5 -5 -4 -4 -4 -5 -5 -5 -4 -4
-12 -12 -11 -11 -10 -10 -10 -11 -11 -11 -11 -11 -10 -10 -10 -9 -9 -9 -9 -8 -8 -8 -8 -8 -8 -7 -7 -7 -7 -7 -7 -6 -6 -6 -5 -5 -5 -4 -4 -4 -4 -4 -5 -5 -5 -5 -5 -5 -5 -6 -6 -5 -5 -5 -5 -5 -4 -4 -4 -4 -4 -4 -4
-12 -12 -11 -12 -12 -12 -12 -11 -11 -11 -11 -11 -11 -11 -10 -10 -10 -10 -9 -9 -8 -8 -8 -8 -8 -8 -8 -8 -7 -7 -7 -7 -6 -6 -6 -6 -5 -5 -4 -4 -4 -5 -5 -5 -5 -5 -5 -5 -5 -6 -5 -5 -5 -5 -5 -5 -5 -4 -4 -4 -4 -4 -4
-13 -13 -12 -13 -14 -14 -13 -12 -11 -11 -11 -12 -12 -11 -11 -11 -11 -10 -10 -9 -9 -8 -8 -8 -8 -8 -8 -8 -8 -8 -7 -7 -7 -6 -6 -6 -6 -5 -5 -5 -5 -5 -5 -5 -5 -5 -5 -5 -5 -5 -5 -5 -5 -5 -5 -5 -5 -4 -4 -4 -4 -4 -4
-13 -13 -13 -13 -13 -13 -12 -11 -11 -12 -12 -12 -12 -12 -11 -11 -11 -11 -11 -10 -9 -8 -8 -8 -8 -8 -8 -8 -8 -8 -8 -8 -7 -7 -7 -7 -6 -5 -5 -5 -5 -5 -5 -4 -5 -5 -5 -5 -5 -5 -5 -5 -5 -5 -5 -5 -5 -5 -4 -4 -4 -4 -4
-14 -14 -14 -13 -13 -12 -12 -11 -11 -12 -12 -12 -12 -12 -12 -12 -11 -11 -11 -10 -9 -8 -8 -8 -8 -8 -8 -8 -8 -8 -8 -8 -7 -7 -7 -7 -6 -6 -5 -5 -5 -5 -5 -4 -5 -5 -5 -5 -5 -5 -5 -5 -5 -5 -5 -5 -5 -5 -5 -4 -4 -4 -4
-14 -14 -14 -14 -13 -13 -13 -13 -12 -12 -12 -13 -13 -12 -12 -12 -11 -11 -11 -11 -9 -9 -9 -9 -8 -8 -8 -8 -8 -8 -8 -8 -8 -8 -8 -8 -7 -6 -6 -5 -5 -5 -5 -5 -4 -5 -5 -5 -5 -5 -5 -5 -5 -5 -5 -5 -5 -5 -5 -4 -4 -4 -4
-13 -14 -14 -14 -14 -14 -14 -14 -13 -12 -12 -13 -13 -12 -12 -12 -12 -11 -11 -11 -10 -9 -9 -9 -8 -8 -8 -8 -9 -9 -9 -9 -8 -8 -8 -8 -7 -6 -6 -5 -5 -5 -5 -5 -5 -5 -5 -5 -5 -5 -5 -5 -5 -5 -5 -5 -5 -5 -5 -5 -4 -4 -4
-14 -14 -14 -14 -14 -14 -14 -14 -13 -13 -13 -13 -13 -13 -13 -12 -12 -11 -11 -11 -10 -9 -9 -9 -8 -8 -8 -9 -9 -9 -9 -9 -8 -8 -8 -8 -8 -7 -7 -6 -5 -5 -5 -5 -5 -5 -5 -5 -6 -6 -5 -5 -5 -5 -5 -5 -5 -5 -5 -5 -5 -4 -4
-13 -13 -14 -14 -14 -14 -14 -14 -13 -14 -14 -13 -13 -13 -13 -12 -12 -11 -11 -11 -10 -9 -9 -9 -8 -8 -9 -9 -9 -9 -9 -9 -9 -8 -8 -8 -8 -8 -8 -7 -6 -5 -5 -6 -6 -5 -5 -5 -6 -6 -5 -5 -5 -5 -5 -5 -5 -5 -5 -5 -5 -4 -4
-13 -13 -14 -14 -14 -14 -14 -14 -14 -14 -14 -14 -13 -13 -13 -12 -12 -11 -11 -11 -10 -10 -9 -9 -9 -8 -8 -9 -9 -9 -9 -9 -9 -8 -8 -8 -8 -7 -6 -7 -6 -6 -6 -6 -6 -6 -5 -5 -5 -5 -5 -5 -5 -5 -5 -5 -5 -5 -5 -5 -5 -5 -4
-13 -13 -14 -14 -14 -14 -14 -14 -14 -14 -14 -14 -13 -13 -13 -12 -12 -11 -11 -11 -10 -10 -10 -9 -9 -9 -8 -8 -9 -9 -9 -9 -9 -8 -7 -8 -8 -7 -7 -7 -7 -6 -6 -6 -6 -6 -6 -5 -5 -6 -6 -5 -5 -5 -5 -5 -5 -5 -5 -5 -5 -5 -4
-13 -13 -13 -14 -14 -14 -14 -14 -14 -14 -14 -14 -14 -14 -13 -13 -12 -11 -11 -11 -11 -11 -10 -9 -9 -9 -8 -8 -9 -9 -9 -9 -9 -8 -8 -8 -9 -8 -8 -7 -7 -7 -6 -5 -5 -6 -6 -5 -5 -6 -6 -5 -5 -5 -5 -5 -5 -5 -5 -5 -5 -5 -5
-13 -13 -13 -13 -14 -14 -14 -14 -13 -14 -14 -14 -14 -14 -13 -13 -12 -12 -11 -11 -11 -11 -11 -10 -9 -10 -9 -8 -9 -9 -10 -9 -9 -9 -8 -9 -9 -8 -8 -7 -7 -6 -5 -5 -5 -5 -5 -5 -5 -5 -5 -5 -5 -5 -6 -6 -6 -5 -5 -5 -5 -5 -5
-14 -14 -15 -14 -14 -15 -15 -14 -14 -14 -14 -14 -14 -14 -14 -13 -13 -13 -12 -11 -11 -11 -11 -10 -10 -10 -9 -9 -9 -9 -10 -10 -9 -9 -8 -8 -8 -8 -7 -7 -6 -6 -5 -5 -5 -5 -5 -5 -5 -4 -5 -5 -5 -5 -5 -6 -6 -6 -6 -6 -6 -6 -6
-16 -16 -17 -17 -16 -16 -15 -14 -14 -15 -15 -15 -15 -14 -14 -14 -14 -13 -13 -12 -11 -12 -11 -11 -10 -10 -10 -10 -9 -9 -9 -10 -10 -9 -9 -8 -8 -8 -7 -7 -6 -6 -5 -5 -5 -5 -5 -5 -4 -4 -4 -4 -5 -5 -5 -5 -5 -5 -5 -6 -6 -6 -6
-18 -18 -19 -18 -18 -17 -15 -14 -15 -15 -16 -15 -15 -15 -15 -14 -14 -14 -13 -12 -12 -11 -12 -11 -10 -10 -10 -10 -10 -9 -9 -9 -10 -10 -9 -9 -8 -8 -8 -7 -7 -6 -6 -5 -5 -5 -5 -4 -5 -5 -5 -5 -5 -5 -5 -5 -5 -5 -5 -5 -5 -6 -6
-19 -19 -19 -19 -19 -18 -16 -16 -16 -16 -16 -16 -15 -15 -15 -15 -14 -14 -14 -13 -12 -11 -12 -11 -11 -10 -10 -10 -10 -10 -9 -9 -10 -10 -9 -9 -9 -8 -8 -8 -7 -6 -6 -6 -6 -5 -5 -4 -5 -5 -6 -5 -5 -5 -5 -5 -5 -5 -6 -6 -5 -5 -6
-19 -19 -20 -20 -19 -19 -18 -18 -18 -17 -17 -16 -15 -15 -15 -15 -15 -14 -14 -14 -13 -12 -12 -12 -10 -10 -10 -10 -10 -10 -9 -9 -10 -10 -9 -9 -9 -9 -9 -8 -8 -7 -6 -6 -6 -6 -5 -5 -5 -5 -6 -5 -5 -5 -5 -6 -5 -5 -6 -6 -6 -6 -5
-19 -19 -20 -20 -20 -19 -19 -19 -19 -18 -18 -17 -16 -16 -15 -15 -15 -15 -14 -14 -13 -12 -12 -12 -11 -9 -10 -10 -10 -10 -10 -9 -10 -10 -9 -9 -9 -9 -9 -9 -8 -7 -6 -6 -6 -6 -6 -6 -5 -5 -5 -5 -5 -5 -6 -6 -6 -6 -5 -6 -6 -6 -5
-20 -20 -20 -20 -20 -19 -19 -19 -19 -19 -18 -18 -17 -17 -16 -15 -15 -15 -14 -14 -14 -13 -12 -12 -12 -10 -10 -10 -10 -10 -10 -9 -9 -10 -10 -10 -10 -10 -10 -9 -8 -8 -7 -7 -7 -7 -6 -6 -6 -6 -6 -6 -6 -5 -6 -6 -6 -6 -5 -6 -6 -6 -5
-20 -20 -20 -20 -20 -19 -19 -19 -19 -19 -19 -19 -18 -17 -17 -16 -15 -15 -15 -14 -14 -13 -13 -13 -12 -11 -11 -10 -10 -10 -10 -10 -10 -10 -9 -10 -10 -10 -10 -9 -9 -8 -8 -8 -7 -7 -7 -7 -6 -6 -6 -6 -6 -6 -6 -6 -6 -6 -5 -6 -6 -6 -6
-20 -20 -20 -20 -20 -19 -19 -19 -19 -19 -19 -19 -19 -18 -17 -16 -16 -16 -15 -14 -14 -14 -13 -13 -12 -12 -11 -11 -10 -10 -10 -10 -10 -10 -9 -9 -10 -10 -10 -9 -9 -8 -8 -8 -8 -8 -7 -7 -7 -6 -6 -6 -6 -6 -6 -6 -6 -6 -6 -6 -6 -6 -6
-20 -20 -20 -20 -20 -20 -19 -19 -19 -19 -19 -19 -19 -18 -17 -17 -17 -16 -16 -15 -14 -14 -14 -13 -13 -12 -12 -11 -11 -10 -10 -10 -10 -10 -10 -9 -9 -10 -10 -9 -9 -9 -9 -8 -8 -8 -8 -7 -7 -6 -6 -6 -6 -6 -6 -6 -5 -6 -6 -6 -6 -6 -5
-20 -20 -20 -20 -20 -20 -20 -19 -19 -19 -19 -20 -19 -19 -18 -18 -17 -17 -16 -16 -15 -14 -14 -13 -13 -13 -12 -12 -12 -11 -11 -10 -10 -10 -9 -9 -9 -9 -10 -10 -9 -9 -9 -9 -8 -8 -8 -8 -7 -7 -6 -6 -6 -6 -5 -5 -5 -6 -7 -7 -6 -6 -6
-20 -20 -20 -20 -20 -19 -19 -20 -20 -20 -20 -20 -19 -19 -19 -19 -18 -17 -17 -16 -16 -15 -14 -14 -14 -14 -13 -12 -12 -12 -11 -10 -10 -10 -9 -9 -9 -9 -9 -10 -9 -9 -9 -9 -9 -9 -8 -8 -7 -7 -6 -6 -6 -6 -5 -5 -6 -6 -7 -7 -7 -6 -6
-20 -20 -20 -20 -20 -19 -19 -20 -20 -20 -20 -20 -19 -20 -19 -19 -19 -18 -17 -17 -16 -16 -15 -14 -14 -14 -14 -13 -12 -12 -12 -10 -10 -10 -10 -9 -9 -9 -9 -9 -9 -9 -9 -9 -9 -9 -8 -8 -8 -7 -6 -6 -6 -6 -6 -6 -6 -7 -7 -7 -7 -7 -6
-20 -20 -20 -20 -20 -20 -19 -20 -20 -20 -20 -20 -20 -19 -19 -19 -19 -18 -18 -17 -17 -16 -15 -15 -14 -14 -14 -13 -13 -12 -12 -11 -10 -10 -10 -10 -9 -9 -9 -9 -9 -9 -9 -9 -9 -9 -8 -8 -8 -7 -6 -6 -6 -6 -6 -7 -7 -7 -7 -7 -7 -7 -6
-20 -20 -20 -20 -20 -20 -19 -20 -20 -20 -20 -20 -20 -20 -19 -19 -19 -19 -18 -18 -17 -17 -16 -15 -15 -14 -14 -13 -13 -12 -12 -12 -11 -10 -10 -10 -10 -9 -9 -9 -10 -9 -9 -9 -9 -9 -8 -8 -8 -7 -7 -6 -6 -6 -6 -6 -7 -7 -7 -7 -7 -7 -6
-20 -20 -20 -20 -20 -20 -20 -19 -20 -20 -20 -20 -20 -20 -19 -19 -19 -19 -19 -18 -18 -17 -16 -15 -15 -14 -14 -14 -13 -13 -13 -12 -11 -11 -10 -10 -10 -10 -9 -9 -10 -10 -9 -9 -9 -8 -8 -8 -8 -7 -7 -6 -6 -6 -6 -6 -6 -7 -6 -6 -7 -7 -7
-20 -20 -20 -20 -20 -20 -20 -20 -20 -19 -19 -19 -20 -20 -20 -20 -19 -19 -19 -18 -18 -17 -16 -16 -15 -15 -14 -14 -13 -13 -13 -12 -12 -11 -10 -10 -10 -10 -10 -10 -10 -10 -9 -9 -9 -8 -8 -8 -8 -7 -7 -7 -6 -6 -6 -6 -6 -6 -6 -6 -6 -7 -7
-20 -20 -20 -20 -20 -20 -20 -20 -20 -19 -19 -19 -20 -20 -20 -20 -20 -19 -19 -18 -18 -17 -17 -16 -15 -15 -15 -14 -14 -13 -13 -13 -12 -11 -11 -10 -10 -10 -10 -10 -10 -10 -9 -9 -9 -8 -8 -8 -8 -7 -7 -7 -6 -6 -6 -6 -6 -6 -6 -6 -6 -6 -7
-20 -20 -20 -20 -20 -20 -20 -19 -20 -20 -20 -19 -19 -20 -20 -20 -20 -19 -19 -18 -18 -18 -17 -16 -15 -15 -15 -14 -14 -13 -13 -13 -12 -12 -12 -11 -10 -10 -10 -10 -10 -10 -10 -9 -9 -9 -8 -8 -7 -7 -7 -7 -6 -6 -6 -6 -6 -6 -6 -6 -6 -6 -6
-20 -20 -20 -20 -20 -20 -20 -20 -19 -20 -20 -19 -19 -19 -19 -19 -19 -19 -19 -18 -18 -18 -17 -16 -16 -15 -15 -15 -14 -14 -13 -13 -13 -12 -12 -11 -11 -10 -10 -10 -11 -10 -10 -10 -10 -9 -9 -8 -7 -7 -7 -7 -6 -6 -6 -6 -6 -6 -6 -6 -6 -6 -6
-20 -20 -20 -20 -20 -20 -20 -20 -20 -20 -20 -19 -19 -19 -19 -19 -19 -19 -19 -18 -18 -17 -17 -16 -16 -15 -15 -15 -15 -14 -14 -13 -13 -13 -12 -12 -11 -11 -11 -11 -11 -10 -10 -10 -10 -9 -9 -8 -7 -7 -7 -6 -6 -6 -6 -6 -6 -6 -6 -6 -6 -6 -7
-20 -20 -20 -20 -20 -20 -20 -20 -20 -20 -19 -19 -19 -19 -19 -19 -19 -19 -18 -18 -17 -17 -17 -17 -16 -16 -15 -15 -15 -15 -14 -13 -13 -13 -13 -12 -12 -11 -11 -11 -11 -10 -9 -9 -9 -9 -9 -8 -8 -7 -7 -6 -6 -6 -6 -6 -6 -6 -6 -6 -6 -6 -6
Height
5797 5799 5801 5804 5809 5811 5813 5816 5819 5824 5827 5830 5832 5834 5836 5838 5839 5841 5845 5848 5850 5853 5856 5860 5862 5864 5869 5872 5871 5869 5872 5876 5877 5879 5883 5886 5889 5892 5893 5895 5897 5898 5900 5901 5902 5904 5905 5906 5906 5908 5910 5911 5913 5914 5915 5918 5919 5921 5923 5926 5928 5929 5931
5790 5792 5794 5799 5803 5807 5811 5814 5817 5821 5824 5826 5827 5829 5832 5834 5835 5838 5843 5846 5849 5852 5854 5859 5861 5863 5865 5867 5868 5867 5868 5871 5874 5875 5879 5883 5886 5889 5890 5892 5895 5897 5898 5899 5901 5903 5904 5904 5905 5907 5909 5910 5912 5913 5914 5916 5918 5920 5921 5923 5925 5927 5929
5788 5790 5793 5798 5801 5805 5809 5811 5815 5817 5819 5821 5823 5825 5828 5830 5832 5835 5839 5843 5847 5850 5854 5857 5860 5862 5863 5863 5865 5865 5864 5867 5870 5872 5875 5879 5882 5885 5887 5889 5892 5895 5896 5898 5899 5901 5902 5903 5904 5906 5908 5910 5911 5912 5914 5916 5918 5919 5919 5920 5922 5925 5927
5788 5791 5794 5799 5800 5801 5804 5806 5810 5812 5814 5816 5818 5820 5823 5826 5829 5832 5836 5840 5844 5850 5855 5857 5859 5860 5860 5861 5863 5862 5861 5862 5865 5868 5871 5874 5877 5882 5885 5887 5889 5892 5894 5896 5898 5899 5900 5901 5903 5905 5907 5909 5911 5912 5913 5915 5917 5918 5919 5919 5921 5923 5925
5786 5788 5790 5792 5791 5793 5797 5800 5805 5808 5811 5813 5815 5817 5820 5822 5826 5829 5832 5836 5840 5848 5855 5857 5858 5857 5856 5859 5860 5859 5858 5858 5859 5863 5867 5869 5872 5878 5882 5885 5887 5889 5891 5894 5895 5897 5898 5899 5901 5904 5906 5908 5909 5910 5912 5914 5916 5918 5919 5920 5921 5923 5924
5781 5782 5784 5785 5786 5789 5792 5797 5802 5805 5807 5810 5812 5816 5819 5820 5823 5825 5828 5832 5838 5845 5851 5854 5854 5852 5852 5856 5858 5858 5858 5857 5856 5858 5861 5864 5867 5873 5878 5881 5884 5885 5887 5891 5893 5895 5896 5898 5900 5903 5905 5906 5908 5909 5910 5912 5914 5916 5918 5919 5920 5921 5922
5776 5779 5781 5783 5786 5788 5791 5795 5800 5802 5805 5808 5809 5812 5816 5818 5820 5823 5824 5828 5837 5844 5847 5848 5849 5848 5848 5852 5856 5857 5857 5856 5854 5855 5857 5860 5864 5868 5872 5877 5881 5882 5884 5887 5890 5892 5894 5896 5899 5901 5903 5904 5906 5908 5909 5910 5912 5914 5916 5918 5919 5920 5921
5774 5777 5778 5781 5783 5785 5787 5792 5797 5799 5801 5801 5801 5804 5809 5813 5817 5820 5821 5824 5834 5842 5840 5840 5844 5845 5844 5847 5850 5853 5855 5854 5852 5851 5853 5856 5860 5864 5868 5872 5877 5879 5881 5883 5886 5889 5892 5894 5896 5898 5901 5903 5905 5906 5908 5909 5911 5912 5914 5916 5918 5919 5920
5769 5773 5775 5776 5777 5777 5779 5784 5790 5794 5794 5791 5794 5798 5801 5805 5809 5813 5816 5819 5827 5832 5830 5831 5837 5839 5840 5842 5842 5843 5845 5846 5846 5846 5847 5850 5855 5860 5863 5868 5872 5876 5878 5880 5884 5887 5890 5893 5895 5896 5898 5901 5903 5905 5908 5909 5909 5910 5912 5913 5915 5918 5919
5763 5767 5769 5769 5770 5771 5773 5777 5783 5788 5788 5786 5790 5794 5795 5797 5800 5805 5811 5815 5820 5823 5823 5827 5831 5833 5837 5840 5838 5837 5838 5839 5840 5842 5845 5849 5852 5855 5859 5863 5868 5871 5875 5878 5881 5884 5887 5891 5892 5894 5896 5898 5901 5903 5906 5907 5907 5908 5910 5911 5913 5915 5918
5758 5761 5761 5762 5765 5767 5769 5771 5776 5781 5783 5784 5787 5790 5791 5792 5796 5801 5807 5811 5816 5818 5819 5823 5826 5826 5831 5836 5837 5836 5836 5837 5840 5842 5845 5848 5849 5851 5854 5858 5862 5867 5871 5875 5878 5880 5884 5887 5889 5891 5893 5896 5898 5901 5903 5905 5906 5907 5909 5910 5911 5914 5916
5751 5753 5753 5755 5757 5759 5763 5766 5770 5775 5778 5781 5784 5786 5787 5788 5792 5799 5804 5807 5811 5812 5813 5817 5821 5821 5824 5828 5832 5834 5834 5836 5840 5843 5844 5844 5845 5847 5850 5852 5856 5862 5868 5871 5874 5877 5880 5883 5886 5888 5891 5893 5896 5898 5900 5902 5904 5906 5907 5909 5910 5912 5914
5743 5745 5747 5748 5748 5752 5756 5759 5762 5767 5771 5775 5778 5780 5783 5784 5788 5794 5798 5802 5805 5806 5808 5812 5815 5817 5818 5821 5825 5830 5831 5833 5837 5840 5841 5841 5842 5845 5847 5850 5853 5858 5862 5866 5870 5874 5877 5880 5883 5885 5887 5890 5892 5895 5897 5898 5901 5903 5905 5907 5908 5910 5912
5735 5738 5739 5741 5742 5745 5748 5751 5756 5760 5764 5769 5773 5777 5780 5781 5784 5791 5796 5798 5800 5801 5803 5808 5811 5813 5814 5817 5821 5826 5828 5830 5833 5835 5837 5838 5839 5842 5844 5847 5850 5853 5856 5860 5864 5867 5871 5874 5877 5880 5882 5885 5889 5892 5894 5896 5898 5900 5903 5904 5906 5908 5910
5726 5730 5730 5732 5735 5737 5740 5745 5750 5754 5758 5762 5766 5770 5774 5776 5780 5788 5793 5794 5793 5794 5798 5802 5806 5809 5811 5813 5816 5820 5823 5826 5828 5831 5833 5835 5837 5839 5841 5844 5846 5849 5853 5857 5860 5863 5865 5868 5871 5874 5876 5879 5882 5886 5888 5891 5894 5896 5899 5901 5903 5905 5907
5718 5722 5721 5721 5724 5726 5729 5737 5743 5747 5750 5753 5758 5763 5768 5771 5774 5781 5788 5788 5785 5786 5789 5793 5796 5799 5804 5807 5809 5813 5818 5822 5824 5826 5829 5831 5833 5835 5837 5841 5844 5847 5850 5853 5856 5859 5861 5864 5867 5870 5873 5875 5878 5880 5882 5885 5886 5888 5891 5895 5899 5902 5903
5711 5713 5711 5712 5713 5714 5719 5729 5737 5740 5741 5744 5750 5755 5760 5764 5766 5772 5779 5776 5773 5777 5783 5787 5788 5791 5796 5800 5803 5807 5812 5816 5820 5822 5825 5827 5829 5831 5833 5837 5841 5844 5847 5849 5852 5854 5857 5860 5863 5866 5870 5873 5875 5878 5880 5882 5883 5885 5887 5889 5891 5895 5898
5705 5706 5704 5704 5703 5705 5714 5724 5729 5730 5731 5734 5740 5746 5751 5753 5755 5761 5765 5764 5766 5773 5777 5780 5784 5789 5793 5796 5799 5802 5806 5811 5816 5817 5819 5823 5825 5827 5830 5833 5837 5841 5843 5845 5847 5849 5852 5855 5858 5862 5866 5870 5872 5874 5877 5881 5884 5889 5892 5892 5890 5891 5894
5699 5700 5698 5696 5697 5703 5712 5717 5717 5720 5723 5725 5731 5739 5743 5744 5747 5753 5756 5758 5765 5770 5770 5774 5780 5784 5788 5791 5794 5797 5801 5806 5811 5814 5815 5818 5821 5823 5826 5828 5832 5836 5839 5840 5842 5844 5847 5850 5853 5857 5860 5864 5866 5868 5872 5877 5882 5887 5893 5896 5897 5895 5895
5694 5695 5692 5692 5695 5701 5705 5704 5705 5710 5714 5717 5723 5730 5732 5734 5740 5747 5750 5753 5759 5761 5763 5770 5776 5777 5779 5784 5788 5792 5796 5800 5805 5809 5812 5814 5817 5820 5822 5824 5827 5831 5834 5837 5839 5841 5843 5846 5849 5851 5854 5857 5860 5863 5868 5873 5878 5883 5888 5892 5896 5897 5896
5690 5690 5688 5689 5692 5695 5696 5696 5697 5701 5705 5708 5713 5718 5721 5726 5734 5739 5743 5747 5751 5753 5756 5763 5768 5770 5773 5778 5783 5787 5792 5796 5801 5805 5808 5810 5813 5815 5817 5820 5822 5826 5829 5833 5836 5838 5840 5842 5845 5847 5850 5854 5856 5858 5863 5869 5874 5879 5883 5887 5890 5893 5894
5685 5684 5683 5685 5687 5690 5693 5694 5694 5697 5699 5702 5706 5709 5714 5721 5726 5730 5735 5740 5744 5747 5751 5755 5760 5764 5767 5773 5779 5783 5787 5792 5796 5800 5803 5805 5808 5810 5813 5815 5817 5820 5824 5827 5831 5834 5836 5838 5841 5844 5847 5850 5853 5856 5860 5866 5870 5874 5878 5882 5886 5889 5890
5680 5679 5679 5681 5683 5686 5689 5690 5690 5693 5695 5697 5699 5701 5706 5713 5719 5723 5729 5733 5737 5741 5744 5748 5753 5757 5760 5767 5774 5778 5782 5786 5791 5794 5796 5799 5802 5805 5808 5810 5813 5816 5819 5822 5825 5829 5832 5834 5837 5839 5842 5846 5851 5854 5858 5862 5866 5870 5874 5878 5882 5885 5885
5675 5675 5675 5677 5679 5681 5683 5685 5686 5687 5688 5690 5691 5693 5698 5706 5712 5716 5721 5726 5729 5733 5737 5741 5746 5750 5753 5760 5767 5772 5776 5779 5783 5786 5790 5793 5796 5800 5803 5806 5808 5811 5814 5817 5820 5824 5827 5830 5833 5835 5838 5842 5847 5852 5855 5858 5862 5867 5872 5875 5878 5879 5880
5672 5671 5672 5674 5675 5677 5679 5681 5682 5683 5684 5684 5685 5687 5693 5700 5704 5707 5712 5717 5721 5725 5729 5733 5737 5741 5745 5751 5757 5763 5768 5772 5775 5778 5782 5786 5789 5794 5798 5801 5804 5807 5809 5812 5815 5819 5822 5825 5828 5831 5834 5837 5843 5847 5851 5855 5859 5864 5868 5871 5872 5873 5874
5668 5668 5669 5670 5671 5673 5675 5676 5677 5678 5679 5678 5680 5684 5688 5691 5695 5699 5704 5708 5712 5716 5721 5725 5728 5733 5738 5743 5749 5755 5759 5764 5768 5772 5776 5780 5782 5786 5792 5796 5799 5802 5805 5808 5811 5814 5817 5820 5823 5827 5830 5834 5838 5842 5846 5851 5856 5860 5862 5865 5866 5868 5870
5665 5665 5665 5666 5667 5670 5671 5672 5672 5673 5673 5674 5677 5679 5681 5683 5688 5692 5696 5700 5704 5707 5712 5716 5720 5725 5731 5736 5742 5749 5754 5758 5764 5768 5772 5775 5776 5779 5785 5790 5794 5798 5800 5803 5806 5809 5812 5815 5818 5822 5826 5831 5834 5838 5843 5848 5852 5854 5856 5859 5861 5863 5865
5662 5662 5662 5662 5664 5666 5666 5667 5668 5669 5669 5671 5673 5674 5676 5679 5683 5686 5689 5693 5696 5699 5704 5709 5713 5718 5724 5730 5736 5743 5749 5753 5758 5763 5767 5769 5772 5775 5779 5785 5789 5793 5796 5799 5802 5805 5808 5811 5814 5817 5821 5826 5830 5835 5840 5844 5846 5848 5851 5853 5856 5859 5861
5659 5659 5659 5659 5660 5661 5661 5662 5663 5665 5665 5667 5668 5669 5672 5675 5677 5679 5682 5685 5689 5693 5698 5702 5707 5712 5718 5724 5730 5737 5742 5747 5752 5756 5760 5764 5767 5770 5774 5779 5783 5787 5790 5794 5797 5800 5803 5806 5809 5812 5816 5821 5826 5831 5835 5838 5841 5843 5846 5849 5852 5855 5858
5656 5656 5656 5655 5656 5656 5656 5657 5659 5660 5661 5662 5663 5665 5667 5669 5671 5674 5676 5679 5682 5687 5691 5697 5702 5707 5712 5718 5724 5730 5736 5741 5746 5750 5754 5757 5761 5765 5769 5773 5776 5781 5785 5788 5792 5796 5798 5801 5804 5807 5811 5816 5821 5826 5830 5833 5835 5838 5841 5844 5847 5851 5854
5653 5653 5652 5652 5652 5652 5652 5653 5655 5656 5657 5658 5659 5660 5661 5663 5666 5668 5670 5673 5676 5680 5685 5691 5696 5701 5706 5712 5718 5723 5729 5735 5740 5744 5748 5750 5754 5759 5763 5767 5771 5775 5779 5783 5787 5791 5794 5796 5799 5803 5806 5810 5815 5820 5823 5827 5830 5833 5836 5839 5842 5846 5849
5650 5650 5649 5648 5649 5648 5648 5649 5650 5651 5652 5653 5654 5655 5656 5658 5660 5662 5665 5668 5671 5675 5679 5684 5690 5695 5700 5705 5711 5716 5722 5728 5733 5738 5741 5744 5748 5754 5758 5762 5766 5770 5774 5778 5782 5786 5789 5792 5795 5799 5802 5805 5809 5813 5817 5821 5825 5828 5830 5833 5837 5840 5843
5647 5646 5645 5645 5645 5644 5644 5644 5645 5645 5646 5647 5648 5649 5651 5653 5654 5657 5659 5663 5665 5669 5673 5678 5684 5689 5694 5699 5703 5708 5715 5722 5727 5731 5735 5739 5743 5748 5753 5757 5760 5765 5769 5773 5777 5781 5785 5788 5791 5795 5798 5800 5804 5808 5811 5815 5818 5821 5824 5827 5831 5834 5837
5644 5642 5641 5641 5640 5640 5639 5639 5639 5639 5640 5641 5642 5644 5645 5647 5649 5650 5653 5657 5660 5663 5667 5672 5677 5683 5687 5692 5696 5701 5709 5716 5721 5725 5730 5734 5737 5742 5748 5753 5756 5760 5764 5768 5773 5777 5781 5784 5787 5790 5793 5796 5799 5802 5805 5809 5812 5815 5818 5821 5824 5827 5830
5641 5639 5638 5637 5636 5636 5635 5634 5634 5634 5634 5635 5636 5637 5639 5640 5642 5644 5647 5651 5654 5657 5662 5666 5671 5676 5681 5685 5690 5696 5704 5710 5715 5720 5725 5729 5732 5737 5743 5748 5752 5755 5758 5763 5767 5772 5776 5780 5783 5785 5788 5791 5794 5797 5799 5803 5806 5809 5812 5815 5818 5821 5824
5638 5636 5634 5633 5632 5631 5631 5630 5629 5629 5629 5629 5630 5631 5632 5634 5636 5638 5641 5645 5648 5652 5656 5661 5665 5671 5675 5679 5684 5691 5697 5704 5709 5714 5719 5723 5727 5731 5737 5743 5747 5751 5754 5757 5762 5766 5771 5775 5778 5781 5784 5787 5790 5792 5794 5797 5801 5803 5806 5809 5812 5815 5819
5635 5633 5631 5630 5629 5628 5627 5626 5625 5624 5624 5624 5624 5625 5627 5628 5630 5632 5635 5639 5643 5647 5651 5655 5660 5665 5669 5674 5680 5686 5692 5697 5703 5708 5713 5718 5722 5726 5731 5737 5743 5747 5750 5753 5757 5762 5766 5770 5774 5777 5780 5784 5786 5788 5790 5793 5796 5798 5801 5803 5805 5808 5811
Wind_Speed
25 23 26 30 32 34 37 39 41 39 36 36 37 37 36 33 30 27 26 27 25 23 24 24 25 28 26 26 30 34 33 30 31 31 28 24 22 21 19 18 16 15 17 18 18 16 13 11 9 8 7 6 7 9 10 14 20 23 23 23 23 23 22
28 28 28 26 27 33 36 35 35 33 32 34 35 36 36 35 33 28 25 24 18 11 13 15 15 17 20 21 23 28 31 31 31 32 29 25 24 24 24 24 20 17 18 19 18 16 14 12 10 9 9 10 9 9 10 11 17 22 24 25 25 25 24
33 34 34 30 32 37 36 33 31 28 27 30 32 35 36 37 36 32 30 30 24 15 7 8 11 13 17 20 20 21 25 28 29 31 32 30 28 26 25 25 22 18 17 18 17 16 15 13 12 11 11 11 10 9 9 10 14 21 26 27 28 28 26
31 33 34 28 26 29 29 33 36 34 32 31 31 32 32 33 35 35 34 33 31 25 13 1 8 17 22 22 21 21 23 25 27 30 30 31 31 25 20 20 20 19 18 16 15 15 15 14 14 13 13 12 11 9 8 9 12 18 24 26 28 28 28
30 31 32 28 26 24 25 32 36 35 33 31 29 30 30 29 29 30 31 33 31 27 20 11 8 16 22 18 18 22 23 24 25 27 28 30 32 26 20 20 21 22 22 19 17 16 15 16 16 15 14 13 12 11 9 8 9 12 18 23 25 27 28
33 33 34 33 34 33 32 34 37 36 34 30 29 28 26 24 21 19 24 29 25 19 21 22 20 16 15 12 15 20 21 23 25 25 28 31 32 29 25 23 23 24 25 23 21 19 17 16 16 15 15 15 14 13 12 10 7 8 13 19 23 25 27
36 35 35 36 37 37 36 33 33 36 37 32 30 30 25 22 20 15 18 25 21 20 23 24 26 20 11 10 18 22 21 23 25 26 29 32 32 31 29 26 23 23 25 25 23 21 19 17 16 16 17 17 16 16 16 13 9 8 11 16 21 24 26
38 37 37 37 37 37 37 33 30 34 38 36 36 36 32 27 25 22 21 22 21 24 21 21 26 27 21 17 17 18 17 19 22 25 28 30 31 31 31 28 24 24 25 25 23 21 20 20 19 19 18 18 18 18 17 14 11 10 11 13 18 22 25
39 39 39 39 39 40 41 39 35 34 38 41 41 39 37 35 32 29 27 25 27 28 22 22 26 25 26 25 23 21 19 16 20 28 31 31 30 30 31 29 25 25 26 25 23 20 19 20 21 21 20 20 20 19 18 16 13 12 11 12 15 19 23
40 40 41 43 44 45 44 44 39 36 40 44 45 42 41 41 40 36 32 29 32 35 29 28 32 25 21 24 27 27 24 20 24 31 33 32 30 29 28 26 25 26 26 26 26 25 22 21 21 22 22 21 21 20 20 19 16 14 12 12 13 16 20
39 41 44 45 47 47 47 47 43 40 42 46 46 46 46 47 46 42 36 31 34 39 37 35 39 34 27 25 26 28 26 22 21 25 31 34 33 31 30 26 26 27 26 26 27 27 27 26 24 23 23 23 23 23 22 21 19 16 14 12 13 14 16
39 42 45 47 49 50 49 50 47 44 44 46 46 48 49 51 51 47 41 35 36 41 43 42 44 43 37 31 29 31 32 31 24 22 27 32 34 36 36 33 31 29 26 27 28 28 29 29 27 26 27 27 27 26 26 25 22 19 16 14 13 14 14
43 44 46 48 51 52 51 52 51 49 48 48 47 49 50 51 53 51 47 42 40 43 47 47 46 46 45 39 33 31 34 35 30 26 28 31 32 35 37 36 34 31 29 30 31 31 31 30 28 29 30 30 30 30 30 29 26 22 20 18 16 15 14
49 48 49 50 51 53 55 54 53 53 52 50 49 48 50 52 53 52 49 47 45 45 50 53 48 46 48 44 37 34 34 33 31 31 34 35 33 34 36 37 37 35 35 35 36 36 36 35 33 33 33 33 32 31 31 31 29 27 25 21 19 17 16
53 52 53 54 52 53 56 56 55 55 54 53 52 50 51 53 53 51 50 50 49 48 52 55 53 49 50 47 42 39 37 35 34 34 36 37 34 33 35 37 38 38 37 36 36 37 39 39 38 38 38 37 35 34 34 34 33 32 29 25 22 21 19
54 53 52 54 55 54 56 56 56 57 57 56 55 53 53 54 53 51 51 53 54 52 52 55 56 55 53 49 45 44 41 40 39 38 36 36 35 33 33 34 36 38 37 35 33 35 38 39 40 41 41 40 39 39 39 38 38 38 35 30 25 23 22
49 47 45 48 51 54 57 57 55 57 60 59 57 56 55 55 55 53 53 58 60 57 53 54 56 59 58 52 49 50 47 43 42 42 39 36 36 35 34 34 35 36 38 38 36 35 37 39 40 40 41 41 40 40 40 40 40 40 38 35 30 26 24
38 37 36 39 44 51 58 58 56 58 60 61 61 59 58 58 58 55 56 62 65 60 57 55 56 59 61 57 54 56 54 48 44 44 43 40 39 38 38 39 39 38 39 40 39 37 37 38 38 38 39 39 39 40 39 38 37 37 37 36 33 28 24
31 31 32 35 38 44 49 52 54 58 61 64 65 63 61 61 61 57 56 62 67 65 61 59 58 57 58 60 61 60 58 54 49 46 44 43 42 42 42 42 43 42 41 41 41 40 39 39 39 38 38 38 39 41 39 36 33 33 34 34 31 25 21
30 31 33 34 32 32 36 41 46 51 58 63 66 66 65 64 62 59 57 61 68 71 66 62 64 62 56 57 65 66 62 59 55 51 49 47 46 45 45 45 44 43 44 44 42 41 40 40 41 41 40 38 38 40 38 34 32 32 31 30 29 25 21
31 32 34 34 30 28 30 35 39 44 52 60 65 67 68 67 65 63 60 61 68 74 70 63 68 71 61 56 63 68 66 64 60 56 54 53 52 50 48 47 46 45 46 46 44 42 41 41 42 43 41 39 38 38 37 35 34 34 33 30 27 26 23
31 33 35 35 33 30 28 29 33 38 44 53 62 67 68 68 68 67 64 62 67 75 74 67 68 73 67 59 61 64 63 63 62 60 57 56 56 55 52 50 49 48 47 47 46 44 43 42 43 44 43 41 40 39 38 36 35 35 33 29 26 26 23
32 34 36 35 35 32 29 29 31 34 37 44 54 62 66 67 68 68 67 65 66 73 77 73 70 72 70 64 62 62 60 60 61 61 59 57 57 56 55 54 52 50 48 47 46 45 44 43 42 43 44 42 40 40 38 36 35 33 30 28 27 26 24
30 33 35 34 34 34 31 29 29 31 35 39 45 56 65 67 66 67 69 68 67 72 77 77 74 74 73 68 65 64 64 63 61 58 56 56 57 57 57 57 55 52 51 49 48 46 45 43 43 43 43 42 40 40 38 36 34 32 29 28 29 28 26
25 29 32 32 32 33 32 29 28 30 35 39 43 50 59 64 65 67 69 69 69 71 76 79 77 76 76 74 69 66 67 68 66 61 57 55 57 59 59 60 58 56 54 52 50 49 47 46 45 44 44 42 40 39 38 36 34 30 27 28 31 31 29
21 25 29 31 32 33 32 32 31 31 34 38 41 44 49 57 63 66 69 70 69 70 75 79 80 78 77 77 73 67 66 68 68 66 62 58 59 63 63 61 59 59 57 55 52 51 50 48 47 45 44 42 41 39 37 35 33 30 28 29 32 32 30
17 21 26 30 32 32 33 34 33 32 33 35 39 42 44 49 56 64 69 70 70 70 73 77 80 79 77 78 75 68 65 67 67 65 63 59 58 63 65 62 59 59 58 57 54 52 51 50 48 46 44 41 40 39 37 34 32 32 31 32 33 33 32
16 18 22 26 30 32 34 36 35 34 33 33 35 40 43 44 49 57 65 70 71 71 72 74 78 80 77 77 76 70 65 66 67 64 62 59 56 58 61 59 57 57 57 56 55 53 52 50 48 47 45 42 40 39 36 34 35 35 35 35 35 35 35
17 17 19 23 29 33 36 36 35 35 35 34 34 37 41 44 46 50 57 65 69 70 72 71 73 77 79 77 77 72 66 65 67 65 63 61 57 55 57 57 56 55 55 55 54 53 51 50 49 47 45 43 40 39 37 37 38 38 38 37 37 37 36
20 19 20 23 28 33 37 38 36 35 35 35 34 36 40 44 46 47 49 56 62 67 71 72 70 73 78 79 78 75 68 65 66 66 64 63 60 57 57 56 55 55 54 53 52 51 51 50 49 47 45 43 40 40 40 40 40 40 40 39 39 38 36
22 23 23 25 28 32 36 38 37 36 36 36 35 35 38 42 47 48 47 49 55 62 68 72 71 70 74 79 80 77 72 67 65 66 66 65 62 58 57 57 55 54 53 53 52 51 50 50 49 47 45 44 41 41 42 41 41 41 41 40 39 38 36
23 24 26 27 29 32 34 35 36 37 37 37 36 36 36 39 44 49 48 46 49 56 63 69 71 69 70 76 79 79 75 71 67 66 66 67 64 60 58 58 56 54 53 52 51 49 48 48 48 47 46 45 44 43 43 43 41 42 42 41 40 38 37
23 24 25 27 29 32 34 34 35 37 37 37 37 36 37 37 40 46 50 47 46 52 58 64 68 68 68 72 78 79 77 74 72 69 67 66 66 61 59 59 57 54 52 51 49 47 45 45 45 46 46 46 45 45 45 44 43 43 43 43 41 40 39
23 23 23 24 26 30 33 34 35 36 36 36 36 36 37 38 38 42 48 49 47 48 54 60 65 67 67 69 75 79 78 75 75 73 70 68 68 63 58 57 56 54 52 51 49 47 46 44 44 45 46 46 46 46 46 46 45 45 45 44 43 42 41
22 22 21 21 23 26 30 32 34 35 35 34 34 35 37 39 40 40 45 49 49 47 50 56 61 64 65 67 71 75 77 76 75 74 71 71 71 67 60 55 52 50 51 51 50 49 48 47 45 45 45 46 46 47 48 48 47 47 46 46 45 44 44
19 19 19 19 20 22 25 28 31 32 33 32 32 33 35 39 41 41 42 48 50 49 48 53 57 59 62 65 67 69 72 74 75 74 73 72 72 71 66 58 50 48 50 51 51 50 49 48 47 46 46 45 46 47 49 48 48 48 48 47 47 46 46
18 18 18 18 19 20 22 24 25 28 29 30 30 31 32 36 41 42 41 45 49 50 48 49 53 55 58 62 63 63 66 69 71 72 74 74 73 73 70 62 53 51 53 55 53 51 49 48 47 47 46 45 45 46 48 48 48 48 48 48 48 47 47
Wind_Direction
211 219 228 228 226 227 231 235 237 236 235 237 239 239 239 239 240 239 239 243 248 253 255 255 260 262 257 254 257 261 264 264 263 260 256 252 241 233 243 252 250 243 238 237 236 229 222 214 204 194 192 204 224 236 237 222 210 204 203 204 206 207 204
204 208 216 223 223 222 224 230 234 236 238 238 239 239 237 236 235 232 232 234 234 245 265 272 278 280 279 277 272 266 261 258 258 258 256 253 246 241 245 249 249 243 234 236 239 230 219 215 210 204 204 211 224 236 244 234 217 208 203 202 204 206 204
217 217 219 224 228 226 221 220 222 223 229 236 238 239 239 239 237 233 231 232 226 213 228 299 315 310 301 299 298 284 267 257 252 252 255 255 252 248 245 245 244 241 235 235 236 229 221 216 213 213 216 219 225 236 248 247 228 214 207 203 201 202 203
224 228 227 221 223 229 220 213 214 214 216 225 231 233 236 239 241 239 235 235 231 219 206 269 320 303 299 300 301 294 281 270 253 244 248 251 251 247 239 234 234 235 237 233 229 231 230 224 219 217 220 223 226 230 241 251 242 227 217 209 204 201 201
224 227 223 204 196 213 217 209 208 207 209 216 223 226 230 232 237 242 239 235 234 226 211 197 219 270 286 292 293 290 287 282 266 247 242 245 247 244 230 224 230 236 239 234 229 235 239 233 226 221 219 220 224 226 230 240 249 242 230 218 210 206 204
222 224 223 215 211 217 223 218 209 203 202 208 215 221 227 227 227 240 241 236 232 213 200 198 203 235 270 271 269 280 283 282 277 262 247 242 245 245 236 230 233 239 238 234 232 237 241 236 229 224 220 219 221 222 221 222 230 242 239 226 214 209 207
222 225 227 230 231 231 231 225 210 199 199 205 210 212 215 217 213 219 235 234 216 177 175 193 206 220 235 235 251 270 279 279 278 267 251 242 241 242 239 233 229 231 233 234 236 237 233 229 229 227 222 219 221 221 218 215 209 219 235 233 221 212 208
224 226 229 233 236 238 237 232 218 202 198 205 209 207 206 208 205 203 218 222 191 164 169 187 200 216 225 222 236 257 270 275 271 257 247 243 235 230 232 230 221 217 222 230 235 233 226 224 228 231 225 221 223 224 220 213 206 209 221 231 230 220 211
230 227 229 231 233 236 236 234 227 212 205 208 209 205 204 205 202 199 207 207 181 172 184 180 178 202 220 214 209 208 212 226 232 230 234 238 232 225 224 223 217 213 216 222 226 225 223 220 222 229 229 224 224 224 219 213 208 208 212 224 234 230 220
235 231 231 231 230 233 235 234 230 218 212 212 210 207 207 207 202 194 200 205 188 185 192 176 165 173 189 199 206 204 201 207 213 218 224 226 228 230 227 219 216 214 212 215 222 226 225 215 214 225 230 226 222 219 218 216 212 207 206 215 228 233 229
237 234 234 234 233 233 235 236 233 222 216 215 212 209 209 211 208 196 195 201 187 185 193 181 170 173 175 185 201 203 207 219 214 209 212 212 216 227 228 220 217 216 213 213 221 226 221 212 212 223 228 226 222 218 218 220 215 208 204 209 222 231 231
240 236 235 235 235 234 234 235 235 229 222 220 217 212 211 214 213 203 196 195 184 184 195 188 178 182 185 187 196 204 215 224 217 205 208 209 210 219 222 218 214 214 213 214 217 218 215 212 215 223 225 224 221 217 219 221 217 209 205 206 216 224 227
243 240 238 236 235 235 233 232 233 231 228 225 220 216 214 216 216 208 198 192 185 188 196 193 186 190 192 192 199 211 221 222 217 214 213 208 209 216 221 221 218 212 208 210 213 213 215 218 220 221 221 222 220 217 219 221 218 213 207 206 213 219 221
246 243 241 239 237 236 235 233 231 231 231 229 225 221 219 221 222 215 202 193 190 192 196 195 192 192 193 195 200 210 218 215 208 209 209 205 207 214 219 221 221 217 211 209 210 212 216 219 219 216 217 219 220 220 221 222 221 218 214 210 212 217 220
248 245 244 243 239 236 235 234 233 231 231 231 229 225 222 223 225 218 205 197 196 196 195 196 196 193 193 198 200 202 208 207 200 202 207 206 208 215 220 222 223 223 221 216 215 216 218 219 218 215 215 216 216 217 219 220 221 221 218 213 211 215 217
247 246 246 244 241 238 234 232 232 231 231 229 229 228 226 224 226 220 208 202 204 204 198 196 198 197 196 201 202 198 200 202 198 199 203 207 212 217 222 225 226 228 227 223 221 222 222 223 222 219 220 220 219 217 217 217 217 217 215 212 211 212 213
246 246 246 244 243 240 235 231 229 229 231 229 226 227 227 226 226 221 212 210 211 209 202 198 199 199 198 201 202 199 201 202 198 198 201 209 219 224 227 231 233 233 231 226 223 222 223 225 226 225 225 224 224 225 224 223 223 222 216 209 205 206 208
248 246 247 243 241 240 237 232 228 226 228 228 226 225 225 225 226 221 215 214 214 212 207 202 200 200 199 201 201 200 202 205 202 201 203 207 216 223 228 232 232 232 229 226 223 220 219 221 224 227 229 227 227 230 230 232 235 234 228 218 206 200 201
249 244 244 241 239 239 237 235 232 226 225 227 227 225 224 224 225 222 218 214 212 213 213 207 203 202 202 204 205 202 202 204 205 206 208 209 213 218 223 224 226 226 224 222 222 221 219 219 221 223 224 226 229 231 233 236 234 230 229 223 212 206 206
250 244 243 241 239 237 233 233 233 228 224 225 226 225 223 223 223 223 221 215 211 213 216 211 206 208 207 206 207 207 204 204 205 208 213 214 214 216 218 218 219 221 219 219 221 222 220 221 223 223 222 222 226 229 230 228 223 221 223 219 214 221 231
251 246 245 244 241 234 229 229 231 228 225 224 224 224 223 222 222 222 222 218 213 213 217 214 209 211 213 208 204 206 208 208 207 208 211 212 211 214 217 215 215 217 218 217 218 219 220 221 223 225 225 223 224 225 221 216 218 222 221 217 219 231 239
252 248 246 245 243 238 234 236 236 232 227 225 224 225 224 222 222 222 221 219 215 214 217 217 212 212 216 211 202 201 205 206 205 205 207 208 209 213 215 215 215 217 219 220 219 218 220 221 221 223 224 223 224 223 216 212 217 219 217 219 227 233 232
250 248 245 245 244 241 239 241 240 235 231 228 226 226 225 222 221 222 222 220 217 215 216 218 216 216 218 215 207 202 202 202 201 204 208 208 209 212 213 213 214 216 218 222 223 222 221 221 221 222 223 222 223 222 216 214 218 222 224 227 229 228 225
250 249 247 246 244 239 236 238 241 238 234 230 228 227 225 222 221 222 223 222 220 217 217 217 217 217 219 218 213 208 205 203 204 209 212 211 209 210 211 211 213 216 218 221 224 224 224 223 220 222 224 224 222 221 221 222 223 224 229 231 226 222 221
252 250 249 248 244 239 235 236 240 241 236 232 229 227 224 222 221 221 222 222 222 219 219 219 218 217 217 218 217 214 211 209 209 214 218 216 212 211 212 212 212 215 218 220 223 224 225 225 223 222 224 226 224 223 223 226 225 222 223 228 226 222 220
257 254 251 248 244 240 236 236 239 241 239 236 232 228 226 224 223 221 221 221 222 221 219 220 220 218 216 217 218 218 216 212 211 214 219 220 216 213 213 214 214 215 218 220 221 223 225 226 226 224 224 225 226 225 225 225 225 222 220 223 227 224 221
263 256 251 246 241 238 237 240 243 245 244 240 236 232 230 227 224 223 222 222 222 222 220 220 222 221 218 216 216 218 218 213 210 212 216 217 213 210 211 214 216 217 219 220 221 223 225 226 227 225 223 223 224 225 225 223 223 223 221 222 227 228 225
264 256 251 246 241 237 238 241 244 246 246 244 239 236 234 230 225 225 224 223 223 223 222 221 222 223 221 217 215 216 218 214 210 211 214 214 210 206 209 213 215 216 218 219 221 223 224 224 226 225 222 221 221 222 222 221 221 223 223 223 227 229 229
266 257 250 245 240 237 238 240 242 245 247 247 244 239 236 232 229 227 226 225 225 225 223 222 222 223 223 220 215 213 215 214 209 210 214 216 212 208 209 212 213 215 217 219 220 221 223 224 224 224 223 219 217 217 218 218 220 221 222 224 227 230 231
270 262 252 245 240 238 239 240 243 245 247 248 248 243 238 234 232 230 229 227 226 225 224 224 224 223 222 221 217 214 213 213 210 209 214 217 216 214 212 212 212 213 215 218 219 220 222 224 224 224 223 219 215 215 216 216 218 220 221 223 225 228 230
272 267 259 251 244 241 242 244 245 248 248 248 249 248 241 236 234 233 231 229 227 226 225 224 224 224 222 221 220 217 215 214 212 210 212 216 217 216 215 214 212 212 214 217 218 219 221 224 225 224 223 221 217 216 217 217 217 219 221 223 224 226 229
274 269 264 259 253 248 247 248 248 248 247 246 248 248 244 240 236 234 232 230 228 227 225 223 224 225 224 222 221 219 217 216 215 213 212 215 217 216 214 214 212 211 213 215 217 218 221 224 226 226 225 223 220 218 218 219 219 220 222 223 224 226 229
277 273 267 262 259 255 253 251 250 249 247 246 247 246 242 241 239 236 233 231 229 227 225 223 223 224 225 223 221 220 219 218 217 216 215 216 218 217 213 212 210 210 212 214 216 218 221 225 227 228 227 225 222 220 220 221 220 221 223 225 225 226 229
279 277 271 264 260 257 256 255 252 251 249 247 245 243 240 238 239 238 234 231 229 227 224 222 222 223 225 224 222 220 219 217 217 218 217 218 221 220 213 208 209 211 212 215 219 221 223 226 229 229 228 226 224 223 223 223 223 223 224 226 227 227 228
283 280 276 271 265 260 256 256 254 252 250 247 244 241 238 235 235 236 234 231 228 226 224 222 222 222 224 224 222 221 220 218 217 218 217 217 221 221 214 207 209 215 217 220 224 226 226 225 226 229 228 226 225 225 225 225 225 225 226 227 229 230 231
297 287 278 275 275 270 262 257 256 253 251 248 244 239 236 234 233 234 232 230 228 226 223 223 222 222 224 224 222 221 221 219 219 219 218 217 219 221 218 214 215 219 224 226 227 228 226 223 223 226 228 225 224 226 226 227 227 227 228 229 230 232 234
313 301 287 276 275 277 274 268 263 259 255 250 244 238 234 233 232 231 229 228 227 226 224 223 223 223 223 222 221 222 222 220 220 221 220 219 218 220 221 221 219 221 225 228 228 227 226 222 221 224 226 225 225 227 228 228 229 229 230 231 231 232 233